Simultaneous Nadir Overpasses (SNOs) Predictions

Prediction of SNOs between METOP-A and TERRA Satellite Orbit:

Table of predicted SNOs for the next 14.0 days since TLE Epoch: 1/10/2015
Index Date (METOP-A) Time (METOP-A) Lat,Lon (METOP-A) SZA (METOP-A ) Date (TERRA) Time (TERRA) Lat,Lon (TERRA) SZA (TERRA ) Distance(km) Time Diff (sec)
1 01/10/2015 07:04:57 81.30, 120.63 105.69 01/10/2015 07:05:48 81.30, 120.78 105.73 2.57 51
2 01/10/2015 07:55:36 -81.31, -71.39 74.25 01/10/2015 07:55:14 -81.32, -71.32 74.24 1.32 22
3 01/13/2015 02:39:16 81.30,-172.87 105.23 01/13/2015 02:40:05 81.30,-172.89 105.25 0.60 49
4 01/13/2015 03:29:55 -81.31, -4.89 74.71 01/13/2015 03:29:31 -81.32, -4.96 74.72 1.19 24
5 01/15/2015 22:13:35 81.30,-106.43 104.71 01/15/2015 22:14:21 81.30,-106.41 104.73 0.50 46
6 01/15/2015 23:04:14 -81.31, 61.55 75.23 01/15/2015 23:03:47 -81.32, 61.55 75.24 0.59 27
7 01/18/2015 17:47:52 81.31, -39.67 104.18 01/18/2015 17:48:35 81.31, -39.80 104.18 2.26 43
8 01/18/2015 18:38:32 -81.31, 127.93 75.80 01/18/2015 18:38:02 -81.31, 127.81 75.83 2.10 30
9 01/21/2015 13:22:11 81.31, 26.65 103.55 01/21/2015 13:22:50 81.31, 26.57 103.55 1.27 39




NCC Satellite Simultaneous Nadir Overpasses (SNOs) Prediction Service
